パンスターズ彗星

P/2020 MK4 ( PanSTARRS )

English version
Home page
Updated on November 20, 2022

---------------------------------------------------------------------

・ プロフィール

発見日 2020年6月24日
発見光度 19.8等
発見者 Pan-STARRS 1 telescope (Haleakala)

・ 軌道要素

                    Epoch = 2016 Sept. 9.0 TT
     T = 2016 Sept.18.30133 TT        Peri. = 199.54417
     e = 0.0433682                    Node  =   4.96322 2000.0
     q = 6.0390160 AU                 Incl. =   6.69876
       a =  6.3127902 AU   n = 0.06214011   P =  15.86 years

・ 光度変化

        H = 14.0  G = 0.15

---------------------------------------------------------------------

軌道要素は、CBET 5191に掲載されたものです。
光度グラフはComet for Windowsで作成したものです。

---------------------------------------------------------------------

Copyright(C) Seiichi Yoshida (comet@aerith.net). All rights reserved.